Wind_Speed
13 12 12 12 12 13 14 14 16 17 17 16 15 13 12 11 10 10 9 9 7 6 5 4 5 6 6 7 8 8 8 8 8 7 7 6 6 5 5 4 3 2 3 3 3 4 5 5 6 6 7 7 7 6 7 8 8 9 10 11 12 14 16 17 18 20 21 23 26 28 30 32 34 36 37 38 38 38 38 38 37 37 38 39 40 40
13 12 12 11 11 14 15 15 15 16 16 15 14 13 12 11 10 10 9 9 8 6 6 5 4 6 6 7 7 7 7 7 7 6 6 5 4 4 4 3 2 2 2 3 4 5 6 6 7 7 8 8 7 7 8 9 9 10 11 12 13 15 16 18 19 20 22 24 26 28 30 32 34 35 37 39 39 38 39 39 37 37 38 40 40 40
12 11 11 12 12 14 17 16 14 14 14 13 13 12 11 11 10 10 9 9 8 7 6 5 4 5 6 6 6 6 6 6 6 5 4 3 3 3 3 3 3 3 3 4 5 6 7 7 8 8 8 8 8 9 9 10 10 11 12 12 14 15 17 18 19 21 22 24 26 28 30 31 33 35 37 39 39 39 39 39 37 37 39 40 40 39
11 10 10 12 13 14 16 15 14 14 14 13 12 10 10 10 10 10 10 9 9 8 7 5 4 4 5 5 5 5 5 4 4 4 3 2 2 3 4 4 4 4 4 5 6 7 8 8 8 9 9 9 9 9 10 11 12 12 12 13 15 16 18 19 20 21 22 24 26 27 29 31 33 35 37 39 39 39 40 39 37 38 39 40 40 39
10 10 11 12 13 13 14 14 13 14 15 14 13 11 10 10 10 9 9 9 9 8 7 5 4 4 4 4 4 3 3 3 3 2 2 2 3 5 5 4 4 4 5 6 7 7 8 8 9 9 9 9 9 10 11 12 13 13 13 14 15 17 18 19 20 21 22 24 25 27 29 32 34 36 38 40 39 39 40 38 37 38 40 40 40 38
9 9 11 12 12 12 12 12 12 12 13 13 13 12 11 10 9 8 7 7 7 7 6 5 4 4 4 4 3 3 3 2 2 2 3 4 5 5 4 3 3 4 5 6 7 7 8 8 8 9 9 9 10 11 12 13 14 14 14 14 16 18 19 20 21 22 23 24 25 27 29 32 35 36 38 39 39 39 40 38 37 38 40 41 40 38
7 8 10 11 11 11 11 12 11 11 12 13 13 12 11 10 9 8 7 6 6 6 5 6 6 5 5 4 4 4 3 3 4 4 5 6 6 5 4 4 4 4 5 6 7 7 8 8 8 9 10 10 11 12 12 13 14 15 15 15 16 18 19 20 21 22 23 24 25 27 29 32 34 36 38 39 38 39 40 38 37 39 40 41 39 38
8 8 9 9 9 9 10 12 12 12 12 14 15 13 11 10 9 9 8 7 7 7 7 7 7 6 5 5 5 5 4 4 5 5 6 7 7 6 6 6 6 6 7 8 8 9 9 9 9 9 10 11 12 12 13 14 14 15 16 16 17 18 19 20 21 22 23 24 25 27 29 32 34 36 38 38 38 39 39 37 37 38 40 40 39 37
10 9 9 8 8 8 9 11 11 12 13 14 15 14 12 10 9 8 9 9 8 9 9 8 8 7 6 5 4 4 4 4 5 5 5 6 7 7 7 7 8 8 9 9 10 10 11 11 10 11 11 12 12 13 14 14 15 15 16 17 17 18 19 20 21 22 23 24 25 27 29 32 34 36 38 38 38 39 39 37 37 38 40 40 39 37
10 10 9 8 8 8 9 10 11 12 12 13 15 16 14 12 11 10 10 11 10 9 9 9 8 7 6 5 4 3 3 3 4 4 4 5 6 7 8 8 8 9 9 10 10 11 11 11 11 11 11 12 13 14 15 15 16 16 16 17 17 18 19 20 21 22 23 24 25 27 29 32 34 36 38 38 38 39 38 36 37 38 40 40 38 37
9 10 10 9 8 8 9 10 10 10 11 12 14 16 16 15 13 12 11 11 11 10 9 8 8 7 5 4 3 2 2 2 4 5 5 5 5 6 8 9 9 9 10 10 10 11 11 10 10 10 11 12 13 14 15 16 17 17 17 18 18 18 19 20 21 22 23 24 25 27 29 32 34 36 37 37 38 38 37 36 36 38 39 39 38 37
9 9 10 10 8 7 8 8 9 9 9 11 13 14 15 15 14 12 11 10 10 10 9 8 7 6 5 4 3 2 2 2 4 6 6 6 5 4 6 8 9 9 9 10 10 10 10 10 11 11 11 11 12 13 15 16 17 17 17 18 18 18 19 20 21 22 23 24 25 27 29 32 34 36 37 37 37 37 36 36 36 37 39 39 38 37
8 8 8 9 9 8 8 8 9 9 8 10 13 14 14 14 13 12 11 11 11 11 9 8 6 5 4 4 3 2 2 3 5 7 9 9 9 7 6 6 8 8 8 9 9 10 10 10 11 11 11 12 13 14 15 16 17 17 18 18 18 18 18 20 20 21 23 24 25 27 29 32 34 35 36 36 37 36 35 35 36 37 38 39 38 37
7 7 7 8 8 7 7 7 8 8 9 10 11 13 14 13 13 12 12 11 12 12 11 9 8 6 6 6 5 5 5 5 5 7 10 12 12 11 9 8 9 9 10 10 10 11 12 12 12 12 12 13 14 15 15 16 17 18 18 18 18 18 18 19 20 21 22 24 25 27 29 32 33 35 36 36 36 35 34 35 35 36 38 38 38 37
6 6 6 7 7 6 7 7 8 8 9 11 11 11 12 13 13 12 11 10 11 12 12 11 10 9 7 7 7 8 9 8 8 8 10 12 13 13 12 12 12 11 11 12 12 13 14 14 14 13 13 14 14 15 16 16 17 18 18 18 18 17 18 19 19 20 22 23 25 27 29 31 33 34 35 35 35 34 34 34 35 36 37 37 37 36
5 5 5 7 7 6 6 6 8 9 9 10 10 9 10 10 10 10 9 8 9 10 10 10 11 10 9 9 9 9 9 9 7 8 10 11 13 13 14 15 16 15 14 13 14 14 15 15 15 15 15 15 15 15 15 16 17 17 18 18 18 17 17 18 19 20 21 23 25 27 29 31 32 34 34 34 34 33 33 34 34 35 36 37 37 36
4 3 4 5 7 7 7 6 6 7 8 8 8 8 8 7 7 8 7 7 8 9 9 9 9 9 9 9 10 10 10 9 7 6 9 11 12 14 14 15 16 17 16 15 14 14 15 15 16 16 15 15 15 15 16 16 16 17 18 18 17 17 16 17 18 19 20 22 24 26 29 31 32 33 34 34 34 32 32 33 34 35 36 36 36 36
3 2 2 2 6 8 8 7 7 7 7 7 6 6 6 6 5 5 6 6 7 8 8 7 6 7 7 7 8 10 10 9 8 7 8 9 11 12 14 15 16 16 15 15 15 15 15 15 15 15 15 15 15 15 15 16 16 17 17 18 17 16 16 16 17 18 19 21 23 26 28 30 31 33 33 34 33 31 31 33 34 35 35 36 36 36
3 4 1 1 6 8 9 10 9 9 9 8 7 7 7 6 5 4 4 4 5 6 6 6 5 6 6 6 7 9 9 8 7 8 9 10 11 12 13 14 16 16 15 15 15 15 15 15 14 14 14 14 14 14 14 15 16 17 17 17 17 16 15 16 16 17 18 20 23 25 28 29 31 32 32 33 32 30 31 33 34 34 35 35 35 36
4 6 4 3 5 7 9 11 10 10 10 9 8 9 9 7 7 7 5 4 4 5 5 5 5 6 7 7 7 8 8 7 6 7 10 11 12 13 13 14 15 16 16 16 16 16 15 15 14 14 14 14 14 14 14 15 15 17 17 17 16 15 15 15 15 16 18 20 22 24 27 29 30 31 32 33 32 29 30 32 33 34 34 34 35 35
5 5 6 6 6 7 9 10 10 9 9 9 10 11 10 9 8 7 7 6 5 4 4 4 5 6 7 8 8 8 7 7 7 8 11 13 13 14 15 15 16 18 18 18 17 17 16 15 14 14 15 14 14 14 14 15 15 16 17 17 16 15 14 14 14 15 17 19 21 24 26 28 29 30 31 32 31 28 29 31 32 33 34 34 34 35
5 6 7 8 9 10 11 9 8 8 9 9 11 11 10 9 9 9 9 8 6 5 5 5 5 6 7 7 8 8 7 8 9 10 12 13 14 15 16 18 19 20 20 20 20 19 18 16 15 15 15 15 14 14 14 15 15 16 17 17 17 15 14 14 14 14 16 18 21 23 25 27 28 29 30 31 29 27 28 30 32 33 33 33 34 34
6 6 8 10 11 12 12 10 8 8 8 8 9 10 10 10 9 9 10 10 9 7 6 4 4 6 7 6 8 9 8 8 9 11 13 13 14 15 17 18 20 21 21 21 21 21 19 18 17 15 16 16 15 14 14 15 15 16 17 18 17 16 14 13 13 13 15 18 20 22 24 26 27 28 29 30 28 26 27 30 31 32 32 33 34 34
8 8 8 10 11 11 11 11 10 10 10 10 11 12 12 13 12 12 12 12 11 11 10 7 4 6 8 8 9 10 10 9 10 11 14 15 16 16 17 19 20 21 22 23 23 21 19 19 19 17 16 16 15 14 14 15 15 15 16 17 17 16 14 13 13 13 15 17 19 22 23 25 26 28 28 29 27 25 26 29 30 31 31 32 34 34
9 9 8 9 10 10 11 11 11 11 11 12 13 14 14 15 16 16 16 15 14 14 14 12 8 7 9 11 11 11 11 12 12 13 15 17 18 17 18 19 21 22 23 24 24 22 19 19 19 19 18 17 16 15 15 15 15 16 16 15 15 14 13 12 12 13 14 17 19 21 22 24 25 26 27 28 26 24 25 28 29 30 30 31 33 34
11 11 10 9 8 9 11 11 12 12 13 13 14 14 15 15 16 18 18 18 18 17 16 16 13 9 10 12 13 13 13 14 14 14 14 17 18 18 18 19 22 23 24 25 25 24 21 20 20 20 20 20 18 16 16 16 15 16 16 15 14 13 12 12 12 13 14 16 18 20 21 23 25 25 26 27 25 23 24 26 28 29 29 31 32 34
12 12 12 11 9 8 10 11 11 13 14 13 14 14 15 15 16 17 18 19 20 20 18 19 18 14 12 12 12 14 15 16 16 16 15 16 18 18 19 21 23 24 25 25 25 24 23 21 21 21 21 21 19 17 16 16 16 16 16 16 15 14 13 12 13 13 14 16 18 19 21 22 24 24 25 26 24 22 23 25 27 27 28 30 31 33
14 14 14 13 13 12 13 14 15 15 15 15 14 15 16 17 17 17 17 18 20 20 19 19 18 15 13 12 12 14 15 16 17 18 18 18 18 19 19 21 23 25 25 25 24 23 22 21 21 21 21 21 19 16 16 16 16 16 16 16 15 14 14 13 13 13 14 15 17 19 20 22 23 23 24 25 23 21 22 24 26 26 27 29 30 32
17 16 16 16 16 17 17 17 18 18 17 17 17 18 19 19 19 19 18 19 19 19 19 19 18 15 13 13 13 14 14 15 16 17 18 19 19 19 21 22 23 24 25 25 24 23 22 22 22 22 21 21 19 16 15 16 16 16 16 15 15 15 14 14 13 12 13 14 16 18 20 22 22 22 23 24 22 20 21 23 25 26 26 28 29 31
20 20 19 18 18 19 18 19 20 20 19 19 20 21 21 20 20 19 19 19 19 19 19 19 17 15 13 13 13 15 15 14 15 17 18 18 18 18 19 20 20 21 22 23 23 23 23 23 23 23 21 20 19 16 15 15 16 16 15 15 15 15 14 14 13 12 13 14 16 18 20 21 21 21 23 24 22 19 20 22 24 25 26 27 28 30
24 23 23 22 23 22 21 20 20 20 20 19 18 20 20 19 19 19 19 19 19 20 20 20 18 15 14 13 14 15 15 15 16 17 17 17 16 15 16 17 17 19 20 21 22 23 23 24 24 23 21 20 19 17 16 15 15 15 15 15 14 14 14 13 12 12 12 14 16 18 20 21 21 21 22 23 21 19 19 22 23 24 25 26 28 29
26 26 25 25 26 25 23 22 21 20 19 16 15 18 20 18 18 18 18 19 19 19 19 18 17 15 13 13 13 14 15 15 16 17 17 16 14 13 14 16 17 18 20 20 21 22 23 23 23 22 21 19 17 15 15 15 15 15 15 14 14 14 13 13 12 12 13 14 16 18 20 20 20 20 21 22 21 19 19 21 22 24 25 26 27 28
27 27 26 26 26 26 24 22 20 19 17 14 15 19 20 19 18 18 18 20 20 18 18 17 15 13 13 13 13 14 15 16 16 17 16 15 14 13 14 16 17 19 20 21 21 22 22 22 22 21 20 18 15 14 15 15 15 15 14 14 13 13 13 12 12 13 13 14 16 18 19 19 19 20 21 22 21 19 18 19 21 23 24 25 26 28
28 27 27 26 26 26 24 22 20 17 14 14 17 20 20 19 19 17 17 19 20 19 18 16 14 12 13 13 12 13 14 15 16 16 16 15 15 15 16 16 18 20 21 21 21 23 23 22 21 20 19 17 15 14 15 15 15 15 14 14 13 13 13 13 13 14 14 15 16 18 19 19 19 20 22 22 21 19 18 18 20 21 23 24 26 27
27 27 27 27 27 27 25 24 22 17 15 17 20 22 21 20 19 18 16 16 18 18 18 17 15 13 13 13 12 12 12 13 14 15 15 15 15 17 18 18 19 21 22 22 22 22 23 22 20 19 18 16 15 14 15 16 15 14 14 14 13 12 12 13 14 14 14 15 16 17 18 18 19 21 22 22 21 20 18 18 19 21 22 24 25 26
27 27 27 27 28 27 26 25 22 19 17 18 20 22 23 21 19 18 16 15 16 17 17 16 15 14 14 13 12 12 11 11 13 14 14 14 15 17 19 21 22 22 23 23 23 21 21 21 19 18 17 16 15 14 15 15 15 14 13 13 13 12 13 13 14 15 15 15 16 17 18 18 19 20 21 21 21 20 19 18 19 20 22 23 24 25
28 27 27 27 27 27 26 24 22 20 17 16 19 22 23 21 20 18 16 15 16 16 15 15 15 15 15 14 13 13 13 12 14 16 15 14 15 18 20 22 23 23 22 23 23 21 19 18 18 18 17 16 15 15 15 15 15 14 13 13 13 13 13 14 15 15 15 16 16 17 17 18 19 20 21 21 21 21 20 19 20 21 22 23 24 25
29 27 27 28 28 28 27 24 22 20 15 15 21 24 22 21 21 19 16 15 16 16 16 16 16 15 16 17 16 16 15 15 16 17 16 15 16 17 19 21 21 21 20 21 22 21 18 16 17 18 17 17 16 15 15 15 14 14 13 13 13 13 14 14 15 15 15 16 17 17 17 17 18 20 20 21 22 22 21 21 20 21 22 23 24 25
30 28 28 29 29 28 26 25 24 22 18 18 23 24 22 21 22 20 17 15 16 18 18 17 17 16 17 17 17 17 17 16 16 16 16 16 16 17 18 19 19 18 18 19 20 20 19 17 16 17 17 17 17 16 15 15 14 13 13 14 14 14 14 15 15 15 15 16 17 17 17 17 18 19 20 21 22 22 22 22 21 21 21 22 24 25
31 30 30 29 28 27 26 26 25 23 20 21 22 22 21 21 22 22 20 18 18 19 18 17 17 18 18 18 17 17 18 18 17 17 17 16 16 16 16 17 18 18 18 19 19 20 20 18 17 16 16 16 17 17 16 15 14 13 14 14 14 14 14 15 15 15 15 16 17 17 17 18 18 19 20 20 21 22 22 22 22 22 22 23 24 24
32 32 31 29 28 27 27 27 26 24 22 22 22 21 20 20 22 22 22 21 20 18 17 17 18 18 18 18 17 18 19 19 19 19 18 18 17 16 17 18 19 20 20 20 19 20 20 20 18 16 15 16 16 17 17 16 15 14 14 14 14 14 14 14 15 15 16 17 17 17 17 18 18 19 19 20 21 22 22 23 23 22 23 23 24 25
33 32 32 30 28 28 28 28 28 27 25 24 24 22 21 21 22 23 23 23 21 19 18 19 18 18 18 18 17 17 18 20 20 19 19 18 18 19 19 20 21 21 21 20 20 20 20 21 20 17 15 15 16 17 17 16 15 14 13 14 14 14 14 14 14 15 16 17 17 17 18 18 18 19 19 19 21 22 22 23 23 23 23 23 24 25
34 34 33 32 31 30 30 30 31 30 29 28 26 25 23 23 23 24 24 24 23 21 21 20 19 18 18 18 18 17 17 18 19 19 19 20 21 21 20 20 20 21 20 20 20 21 21 21 21 19 16 15 15 16 17 16 15 14 13 13 13 14 14 14 14 15 16 17 17 18 18 18 19 19 19 19 20 21 22 23 23 23 23 23 24 25
35 35 35 35 34 33 33 33 33 33 32 31 29 27 26 25 25 25 25 25 24 23 22 21 19 18 18 18 19 19 19 19 19 19 20 21 21 21 21 22 22 22 21 21 22 22 22 22 22 21 19 16 16 16 16 16 15 14 13 13 14 14 14 14 15 15 16 17 18 18 18 19 19 19 19 19 19 21 22 23 23 23 23 24 25 26
35 35 35 36 36 35 35 35 35 35 35 34 32 30 29 27 27 27 26 26 25 23 23 22 21 20 20 19 19 19 20 20 20 20 20 20 21 23 24 25 26 26 25 25 24 24 23 22 22 22 21 19 18 17 17 16 15 14 13 13 14 14 15 15 15 15 16 17 18 18 19 19 19 19 19 19 19 20 21 22 22 23 24 25 26 27
35 35 35 36 36 36 35 35 36 36 36 36 35 34 33 31 29 28 27 27 26 25 24 24 24 24 23 22 21 20 20 20 20 20 20 20 21 22 24 27 28 28 27 26 25 24 23 22 22 22 21 20 20 19 18 17 16 14 13 14 15 15 16 16 16 16 17 17 18 19 19 19 19 19 19 19 18 19 20 21 22 23 24 25 26 27
36 36 35 36 37 37 36 36 37 37 37 37 37 37 36 34 32 31 30 29 27 26 26 26 27 27 26 25 24 22 22 22 21 21 21 21 21 22 23 26 28 29 28 27 26 25 24 22 21 21 21 20 20 20 19 18 16 15 14 14 15 16 17 17 17 17 17 18 18 19 19 20 19 19 20 19 19 18 19 21 22 23 24 25 26 28
35 35 35 36 36 37 37 38 38 38 38 38 38 38 38 37 36 34 33 31 30 28 27 27 28 29 29 28 27 25 24 23 23 22 22 23 23 23 23 24 26 27 28 29 28 27 25 24 23 22 21 21 21 21 21 20 18 16 15 15 15 16 17 18 17 17 17 18 18 19 20 20 19 19 20 20 19 19 20 21 22 23 25 26 27 28
36 35 35 36 37 37 38 39 39 39 39 39 39 39 39 38 37 36 36 34 33 31 30 29 30 30 30 30 30 28 26 25 25 24 23 23 23 23 23 23 25 26 28 30 30 29 27 26 25 24 23 22 22 22 22 21 20 18 16 15 16 17 18 18 18 18 18 18 18 19 20 20 20 19 20 20 20 20 20 22 23 24 25 26 27 29
37 37 37 38 38 38 39 39 40 40 40 40 40 40 39 38 38 37 37 37 36 35 33 32 31 32 32 32 31 30 29 28 28 27 25 23 23 23 23 23 25 26 28 29 30 30 29 27 26 26 26 25 24 23 23 22 22 20 18 17 16 16 17 18 19 19 19 19 18 19 19 20 20 20 20 20 20 20 21 22 23 24 25 26 27 29
38 39 40 41 41 40 40 40 41 41 41 41 41 42 41 40 38 38 38 38 38 37 37 35 34 34 34 33 32 31 30 29 29 30 28 25 24 24 24 24 24 26 27 28 29 29 29 28 27 27 27 27 26 24 23 23 23 22 20 18 17 17 17 18 19 19 19 19 19 18 19 20 20 20 20 20 20 19 20 22 24 25 26 26 28 30
Wind_Direction
43 51 55 59 60 60 60 60 61 60 55 53 55 58 58 57 57 59 64 70 74 79 82 88 103 112 116 121 129 136 138 135 129 123 122 118 111 104 98 91 82 70 61 47 33 25 18 14 7 355 346 346 350 348 343 342 344 348 352 352 348 344 345 348 353 358 358 357 357 356 355 355 354 354 353 352 352 353 354 353 351 350 349 348 349 351
46 52 57 61 62 63 62 59 58 58 53 47 46 50 55 57 55 52 54 62 70 78 84 81 90 108 116 124 133 139 139 134 126 122 120 113 103 94 87 77 53 31 20 15 10 6 8 5 358 351 346 345 347 345 341 337 337 342 345 345 343 342 342 345 351 357 357 356 355 355 354 352 352 352 351 351 353 354 354 353 352 351 349 350 352 353
50 54 62 63 59 64 67 62 55 54 51 46 40 40 47 53 58 57 54 56 60 69 80 83 86 99 110 120 131 135 134 129 122 120 117 108 96 81 71 56 31 3 357 3 1 1 4 358 352 348 346 345 345 344 338 331 331 336 339 339 339 340 341 343 350 355 356 355 354 353 351 350 350 351 351 352 354 355 354 353 352 351 351 352 353 355
55 57 64 66 61 64 68 63 52 48 49 47 43 43 45 48 52 54 55 58 60 61 65 73 83 91 98 107 117 125 123 120 118 119 112 95 64 43 39 34 16 351 352 1 1 1 360 354 349 347 345 344 344 343 335 327 327 331 334 336 338 338 340 343 349 354 355 354 352 351 349 348 349 351 352 353 354 355 354 353 352 352 352 353 355 357
58 61 65 69 66 65 66 63 55 48 47 48 49 53 54 47 44 45 47 55 62 65 66 72 79 82 87 92 97 106 110 112 112 104 75 41 29 27 26 19 357 347 355 1 2 360 356 352 349 346 345 343 344 343 333 325 325 328 330 335 336 337 340 343 347 351 353 352 351 349 348 348 349 351 352 353 355 355 354 353 353 353 353 354 356 358
58 64 67 70 67 62 59 61 56 47 45 49 55 61 61 51 44 42 39 45 56 62 69 74 74 74 75 76 79 82 86 82 69 44 19 14 20 20 12 356 344 348 357 358 358 357 352 351 349 345 343 343 346 343 334 326 325 327 329 334 335 335 339 343 346 349 351 351 349 348 349 349 349 351 353 354 354 355 355 354 353 354 354 356 358 359
57 64 69 72 69 63 59 57 51 44 44 51 56 61 62 56 48 46 43 43 48 52 61 66 67 68 64 58 57 58 55 44 28 12 359 2 9 2 338 335 343 346 351 352 349 347 344 342 342 342 342 344 345 341 333 327 326 327 329 334 334 335 338 342 345 347 349 349 348 348 348 348 349 351 353 354 355 356 356 355 354 355 356 357 359 0
59 61 64 66 65 65 66 61 53 47 46 51 54 54 56 55 50 50 50 49 48 49 54 57 59 63 61 54 49 46 41 30 17 4 355 356 354 341 329 335 342 342 344 345 342 339 335 332 332 336 339 342 342 337 331 328 328 328 331 333 334 334 337 341 344 345 347 347 347 347 347 347 349 352 354 354 355 356 357 355 355 356 357 358 -0 1
59 61 59 56 55 60 66 67 63 52 45 50 56 57 57 55 50 49 50 50 53 56 56 56 59 62 63 62 56 49 40 26 12 358 351 351 344 332 328 333 336 339 340 340 339 336 331 328 327 330 335 335 334 330 326 326 327 329 332 333 332 333 337 340 343 344 345 346 346 347 347 347 349 352 354 354 355 357 357 356 356 357 358 359 1 2
53 58 59 55 53 59 60 64 69 57 43 47 56 57 58 56 51 53 54 52 56 63 64 62 62 64 67 69 69 66 47 17 354 343 344 347 341 329 327 331 334 336 337 338 339 336 331 327 325 327 330 330 327 324 322 322 324 327 331 331 331 333 337 340 343 343 344 345 345 346 346 346 350 353 354 354 355 357 357 356 357 358 359 359 1 3
45 46 51 55 56 56 54 62 70 59 44 49 56 56 55 54 52 53 56 55 59 65 68 66 63 62 64 64 64 69 58 9 326 321 330 337 338 328 324 329 335 337 338 338 337 334 329 325 323 324 327 328 326 323 320 319 320 324 328 328 328 333 336 339 342 343 344 344 344 346 346 346 350 353 354 354 355 357 358 357 358 359 359 360 2 4
44 42 43 51 57 54 50 58 67 57 43 50 59 56 49 47 47 51 54 55 58 60 60 62 61 62 64 57 48 37 19 340 313 312 316 315 316 319 318 321 328 334 336 334 331 325 321 319 319 321 325 327 328 325 322 321 320 323 324 324 325 330 335 338 341 342 343 344 344 345 345 346 351 353 354 353 354 357 358 357 358 359 359 0 2 4
41 48 43 43 47 48 46 50 59 58 49 48 55 53 44 39 43 50 54 54 52 49 46 47 48 49 49 39 30 18 353 326 310 307 306 305 304 305 305 308 314 321 327 326 320 315 311 311 312 316 321 326 327 326 325 323 323 323 323 321 322 327 332 335 338 341 343 343 344 345 345 346 351 353 353 353 354 357 358 357 358 360 360 1 3 5
30 43 49 41 33 34 35 40 50 56 53 47 47 45 37 34 40 48 52 49 46 45 40 35 36 31 22 10 357 347 336 323 310 301 298 299 301 304 307 307 308 312 316 316 313 310 308 308 309 312 317 322 324 325 326 326 325 325 323 321 321 325 329 332 335 339 342 343 344 345 345 346 351 353 353 353 354 357 358 357 359 0 0 1 4 5
19 29 52 44 27 19 17 24 32 35 41 45 43 37 27 24 31 41 49 47 42 43 41 37 38 36 28 14 357 344 334 322 307 292 291 296 299 304 312 315 315 315 313 312 310 309 309 310 311 313 316 319 321 324 326 327 326 325 322 321 323 325 328 329 332 336 340 342 343 344 345 347 350 353 352 352 354 356 357 357 359 0 1 2 4 6
2 18 49 39 26 18 7 12 24 21 26 34 34 29 21 13 15 23 37 47 43 41 42 40 39 36 27 17 8 1 352 339 319 293 288 294 300 307 313 315 316 315 312 310 309 308 309 311 314 316 317 317 318 320 323 326 326 323 321 322 324 326 327 327 329 334 338 341 343 344 344 346 350 352 352 352 354 356 356 357 358 0 1 2 4 6
340 16 50 24 8 11 3 358 11 11 10 16 16 19 22 12 2 2 14 36 41 37 40 46 44 32 20 11 7 7 4 357 344 313 297 299 306 311 313 313 312 310 308 307 306 307 310 313 315 317 317 316 315 316 319 322 324 323 323 324 326 328 328 326 326 332 337 339 342 343 344 346 350 352 351 351 354 356 356 356 358 0 1 2 4 6
333 357 64 9 342 348 349 344 351 352 346 351 351 356 8 4 358 359 2 19 33 35 38 45 45 29 15 6 357 358 2 357 345 332 320 315 315 315 316 317 315 313 311 309 308 309 310 311 313 315 316 314 313 314 317 320 322 324 327 328 329 329 327 324 326 331 335 338 341 342 343 346 349 351 350 350 353 355 355 356 358 0 1 2 4 6
345 339 318 293 318 326 329 328 335 337 332 333 333 335 342 338 337 340 346 8 18 20 24 23 21 15 7 0 350 348 355 355 342 332 327 321 316 315 318 319 317 316 316 315 314 313 310 307 307 312 314 313 314 315 317 320 324 328 332 333 331 329 326 324 327 331 334 337 340 341 343 345 348 350 349 350 353 355 355 356 358 360 1 2 4 6
331 332 316 299 312 323 323 317 319 324 321 318 321 330 337 333 328 327 323 337 352 358 9 4 359 4 357 349 348 345 343 341 334 324 317 314 312 311 314 315 315 315 316 317 317 317 315 309 306 308 311 313 315 316 318 323 328 332 334 335 333 330 327 326 328 331 334 337 339 340 342 345 347 349 349 349 352 354 354 355 357 359 0 2 4 6
292 302 300 298 309 321 317 308 309 314 310 309 315 325 336 337 335 332 323 323 341 1 16 8 354 357 351 339 340 341 332 320 313 309 308 308 308 308 309 311 313 314 315 317 318 317 317 314 311 311 311 312 315 317 321 326 332 335 335 335 335 332 330 328 329 333 335 337 339 340 342 344 346 349 349 349 352 354 354 355 356 358 360 2 4 6
271 270 277 286 296 302 302 297 299 301 299 306 316 324 334 338 337 337 331 332 343 354 7 13 355 344 341 334 332 331 323 309 302 301 303 304 304 304 305 308 309 311 313 315 318 319 319 317 316 317 316 313 313 318 324 328 334 336 335 336 337 335 331 329 331 335 336 338 338 340 342 343 345 347 348 348 351 353 354 355 356 358 359 2 4 5
298 287 287 291 294 296 298 299 296 291 289 302 315 319 326 330 328 328 330 334 337 333 336 352 355 341 331 322 323 324 319 308 296 294 297 300 301 300 301 304 306 307 309 311 315 320 321 320 319 320 321 318 314 316 324 330 335 337 336 336 336 335 332 330 333 337 339 338 339 340 342 343 344 346 347 348 351 353 354 355 356 357 359 2 4 5
315 310 304 299 297 299 302 307 306 297 292 300 307 310 314 316 315 312 312 318 321 317 317 316 318 332 325 311 310 313 308 302 293 291 294 297 299 298 298 302 304 305 307 308 312 317 319 320 321 323 325 323 320 320 324 330 336 337 336 335 334 333 332 332 335 341 341 340 339 341 342 342 344 346 346 348 351 353 353 355 356 357 359 3 5 5
307 305 304 300 302 308 310 311 311 304 298 299 300 300 304 306 306 306 304 304 305 303 304 301 297 318 323 310 306 303 297 294 292 292 294 295 295 295 295 298 301 303 305 306 309 313 315 316 319 323 325 325 326 326 325 330 335 336 334 333 333 332 332 333 338 344 344 341 340 341 341 341 343 345 346 348 351 352 353 354 355 356 359 3 5 6
298 296 298 301 305 310 311 309 309 306 304 304 304 302 303 303 302 303 303 302 300 297 298 298 296 308 316 306 302 298 291 293 295 295 295 292 290 289 290 293 297 300 302 304 307 311 315 316 317 320 323 325 327 327 326 329 334 334 332 332 334 333 333 336 343 347 346 343 341 340 339 340 342 344 346 348 350 351 352 354 355 356 358 2 5 7
290 291 292 292 295 303 308 310 310 308 307 308 310 311 311 310 306 303 302 302 301 300 301 299 298 306 311 300 294 290 288 292 296 297 297 294 290 289 290 292 296 298 300 302 305 309 313 317 319 321 324 326 327 326 326 328 332 332 331 332 334 334 335 341 347 349 347 344 341 338 338 339 342 344 347 349 350 350 351 352 354 355 357 0 4 6
283 284 284 282 282 286 293 299 302 304 305 306 307 308 309 309 306 302 302 303 304 305 306 304 303 311 314 303 291 285 286 291 296 299 299 297 296 295 295 296 299 300 301 302 304 307 311 315 319 323 326 328 328 327 326 328 331 332 331 332 333 334 338 344 347 347 346 342 339 337 337 339 341 344 347 349 349 348 349 351 352 354 356 359 2 4
280 282 282 280 280 281 282 286 290 293 295 296 295 296 299 301 301 301 301 302 304 307 308 307 308 315 317 308 296 289 289 293 297 300 302 303 303 300 298 298 300 302 304 305 306 309 311 314 318 323 327 327 327 327 326 326 329 331 332 332 333 335 339 342 345 345 344 341 338 336 336 338 341 343 347 349 349 346 347 349 351 353 355 357 359 1
279 281 282 282 282 282 280 280 282 285 286 286 286 288 291 293 294 296 299 300 303 306 306 305 309 316 317 312 303 295 294 297 299 302 308 312 310 305 302 302 303 304 306 307 309 310 313 314 316 321 326 326 325 325 324 325 327 330 332 332 333 336 338 340 342 343 341 339 337 335 335 338 340 343 347 348 347 344 345 347 350 352 354 356 357 359
275 276 280 283 283 283 282 281 281 282 282 282 284 287 288 287 288 293 297 299 302 304 303 304 309 314 313 311 309 303 300 303 305 307 313 317 316 314 314 312 310 309 308 308 310 311 312 314 316 318 321 321 323 325 325 324 327 329 331 332 333 336 337 337 338 340 339 337 335 334 335 337 340 343 346 347 345 342 342 346 349 351 353 354 355 356
271 273 277 281 281 283 283 283 283 284 283 285 293 293 288 285 287 293 296 297 299 302 304 309 315 315 308 307 310 309 307 309 309 310 314 316 318 321 319 316 315 314 312 312 313 313 314 315 316 316 316 316 320 326 327 326 328 329 330 332 334 336 336 335 335 337 336 335 333 334 335 337 339 342 345 346 345 341 340 343 347 349 351 353 353 354
270 272 274 277 279 280 282 283 284 284 287 297 300 292 286 286 289 293 294 295 298 304 308 314 318 314 304 302 308 309 306 306 306 307 307 307 308 310 310 312 315 314 312 313 315 316 316 317 318 316 315 316 322 327 328 329 330 330 330 331 333 335 336 335 334 334 333 332 332 334 336 337 339 341 343 345 344 340 337 340 344 346 348 350 351 352
268 270 272 274 275 276 278 280 279 282 294 300 292 284 284 288 290 292 292 294 299 305 309 313 315 309 299 299 304 307 304 303 302 301 301 300 298 297 298 303 308 309 309 311 315 317 320 322 322 319 317 319 325 329 330 331 332 331 329 329 331 334 336 334 332 331 331 330 331 334 336 336 338 341 342 344 345 341 335 336 340 342 345 348 349 350
268 269 270 272 273 274 276 278 279 285 292 290 285 284 287 288 289 292 293 293 297 303 307 310 310 304 297 296 298 299 298 298 297 294 297 300 300 297 295 298 303 306 307 310 315 318 322 325 325 321 318 319 323 328 330 332 333 331 327 327 329 334 335 332 329 329 328 328 330 333 335 336 338 341 343 344 345 342 336 333 336 339 342 345 346 348
268 269 270 271 272 275 277 279 283 286 286 285 285 285 284 285 288 292 293 292 295 300 304 307 305 300 296 295 293 288 285 286 288 289 295 302 303 302 301 300 301 304 307 311 314 317 322 326 323 316 313 315 319 326 330 331 332 330 325 325 329 333 333 329 327 327 326 326 329 333 335 336 338 341 343 345 346 344 339 335 335 337 339 342 343 346
265 267 268 269 270 272 275 279 282 282 283 285 281 277 279 286 290 292 293 293 295 297 298 298 294 290 288 287 286 284 280 279 281 287 295 302 303 303 302 300 300 303 307 310 312 314 320 324 318 310 309 311 315 321 326 328 331 330 325 324 328 331 330 328 326 325 324 325 328 332 334 335 338 341 345 347 348 347 344 340 337 337 338 339 342 345
264 265 265 265 267 270 274 277 278 279 280 277 273 276 282 287 288 290 292 291 289 288 287 287 285 282 281 282 282 282 281 280 281 286 292 297 299 300 300 298 297 300 306 311 313 314 317 320 315 309 308 311 313 317 322 326 329 329 325 324 326 329 329 326 324 323 322 323 327 332 333 334 337 341 346 348 348 348 348 345 342 339 338 339 342 345
264 265 263 263 266 270 273 275 276 278 276 270 272 279 283 284 286 289 289 283 279 281 284 286 286 284 282 282 283 283 282 280 281 283 285 286 288 291 293 294 294 296 304 311 315 315 315 314 311 307 307 311 312 314 317 322 326 326 323 323 325 327 327 324 321 321 321 321 326 330 331 332 335 340 346 348 348 349 350 348 345 342 341 341 343 345
262 263 263 263 266 270 271 272 274 275 273 269 272 278 281 283 286 287 283 277 275 281 286 287 286 285 284 285 285 284 282 279 277 277 276 274 275 279 285 288 290 295 302 309 313 314 312 310 307 304 305 308 311 312 314 317 321 323 322 322 324 325 324 321 318 318 319 320 324 329 329 329 332 338 344 347 348 349 349 348 346 345 344 344 345 345
259 261 262 263 264 266 267 270 272 271 270 270 272 275 278 281 283 283 281 280 281 283 285 284 285 284 283 282 282 281 280 279 277 274 272 270 270 274 279 282 285 291 298 303 308 311 309 307 304 302 301 303 305 307 309 311 316 319 319 320 322 322 320 317 315 316 316 318 323 326 327 327 329 335 342 346 346 347 348 348 347 346 346 346 345 345
255 258 260 262 262 263 265 268 269 269 268 270 273 275 276 278 280 281 283 283 283 280 278 280 284 283 280 279 279 280 280 281 280 277 273 271 273 276 278 280 282 288 292 296 301 306 306 304 301 298 296 296 297 299 301 305 311 314 315 318 319 317 315 313 312 313 314 317 321 323 324 325 327 331 338 344 345 345 346 346 346 347 347 346 345 344
254 256 258 260 261 262 263 265 268 269 271 272 274 276 277 278 279 280 281 281 280 278 277 280 284 285 284 284 284 286 288 287 285 282 277 276 278 279 279 280 283 286 289 291 296 300 302 301 299 296 293 288 289 292 295 300 305 309 312 314 314 312 310 309 309 311 312 315 318 320 321 322 325 329 334 341 344 343 343 344 345 345 345 345 343 343
255 256 258 260 261 262 264 265 268 270 272 274 275 276 277 277 277 278 279 278 278 278 279 281 282 282 283 283 285 287 289 288 286 283 280 278 278 278 278 281 283 283 283 285 290 294 296 296 295 294 292 287 285 287 291 295 300 305 309 310 309 308 306 304 305 307 310 313 315 317 318 320 323 326 330 337 341 341 341 342 342 342 342 342 342 343
254 255 258 260 262 263 265 267 269 271 272 274 275 276 276 276 276 277 278 278 277 277 278 279 280 278 276 275 276 279 281 281 281 281 280 278 277 277 278 280 281 282 281 281 283 286 289 290 290 289 288 286 283 283 286 290 293 298 303 304 304 303 302 300 301 304 307 310 313 314 315 317 321 324 327 333 338 339 338 339 339 339 340 340 341 342
253 254 256 259 262 264 265 267 268 270 271 273 274 276 276 276 276 276 276 276 277 277 277 277 278 277 275 274 273 273 274 276 276 277 278 279 278 279 280 281 282 283 283 282 281 281 282 287 289 288 285 283 282 281 281 284 287 291 296 298 298 298 297 297 298 300 303 306 310 311 312 315 319 323 324 328 334 336 335 336 336 336 337 338 339 340
253 254 256 258 260 263 264 265 266 267 269 270 272 274 275 275 276 276 275 275 275 275 275 275 274 274 274 275 274 274 275 277 278 278 279 280 279 279 280 281 283 284 284 283 281 279 279 283 288 289 286 283 282 281 280 280 282 285 289 291 293 294 293 293 294 296 298 303 306 309 309 312 317 321 322 325 329 331 332 333 333 333 335 337 337 338
253 254 255 257 258 260 262 264 265 266 267 268 269 271 272 274 275 276 276 276 275 274 272 271 271 272 272 273 274 275 277 279 280 280 280 281 280 278 277 278 280 282 283 282 280 279 279 280 284 287 286 283 282 282 280 278 278 279 282 285 287 289 290 290 290 292 294 299 303 306 307 309 314 318 321 323 325 326 329 331 331 332 334 336 336 337
253 254 255 256 256 257 259 261 263 264 266 267 268 269 271 272 274 275 276 276 275 274 271 269 268 269 270 271 274 276 276 276 276 277 278 279 280 279 279 278 279 279 280 280 280 280 279 278 280 283 284 283 282 281 278 275 274 274 275 278 281 285 286 286 286 288 291 295 300 303 304 306 311 315 318 320 322 323 325 329 330 331 333 334 334 336
254 255 255 256 255 255 257 259 260 262 264 266 268 269 269 271 272 274 275 276 275 274 273 271 270 270 270 271 272 273 273 273 273 274 274 274 276 278 279 279 278 278 279 280 280 280 279 278 277 279 280 281 281 280 276 272 271 271 272 273 276 279 281 282 283 285 288 292 298 301 302 303 307 312 315 317 318 319 322 326 328 329 331 333 334 335
252 253 254 256 257 257 257 258 259 260 262 264 267 268 269 270 271 271 273 274 275 276 276 275 275 274 274 274 274 274 272 270 270 272 273 272 272 274 275 276 277 277 278 279 279 279 279 277 275 273 274 277 280 279 275 270 269 269 269 269 271 274 276 278 280 282 285 290 295 298 300 301 305 309 312 314 315 315 320 324 326 327 329 331 333 335
Height
5809 5809 5809 5809 5808 5808 5807 5806 5805 5804 5804 5804 5804 5803 5803 5802 5802 5801 5801 5801 5801 5801 5801 5801 5800 5800 5800 5800 5800 5800 5801 5801 5802 5802 5802 5802 5803 5803 5803 5803 5804 5804 5804 5803 5803 5802 5802 5801 5801 5801 5801 5800 5800 5799 5799 5798 5798 5797 5796 5795 5794 5793 5792 5791 5789 5787 5785 5783 5781 5779 5777 5774 5772 5769 5766 5763 5759 5756 5752 5747 5743 5739 5735 5731 5727 5723
5811 5810 5810 5810 5809 5808 5808 5808 5807 5806 5806 5806 5805 5805 5804 5804 5803 5803 5802 5802 5802 5802 5802 5802 5802 5801 5801 5801 5801 5801 5802 5803 5803 5803 5804 5804 5804 5804 5804 5804 5804 5805 5804 5804 5803 5803 5802 5802 5802 5801 5801 5800 5800 5799 5799 5799 5798 5797 5796 5796 5795 5793 5792 5791 5789 5787 5785 5783 5781 5779 5777 5774 5772 5769 5766 5763 5759 5755 5750 5746 5742 5738 5735 5731 5726 5722
5812 5812 5811 5811 5810 5809 5809 5809 5809 5808 5808 5807 5807 5806 5805 5805 5804 5804 5804 5803 5803 5803 5803 5803 5803 5803 5803 5803 5803 5803 5804 5804 5804 5805 5805 5805 5805 5805 5805 5805 5805 5805 5805 5804 5804 5803 5802 5802 5802 5802 5801 5800 5800 5800 5799 5799 5798 5797 5797 5796 5794 5793 5792 5790 5788 5787 5785 5783 5781 5779 5777 5774 5772 5769 5765 5762 5758 5754 5749 5745 5742 5738 5734 5730 5726 5722
5814 5814 5813 5812 5812 5811 5810 5811 5811 5810 5809 5808 5808 5807 5806 5806 5805 5805 5805 5805 5805 5804 5804 5804 5804 5804 5804 5804 5804 5805 5805 5805 5806 5806 5806 5806 5806 5806 5806 5806 5806 5805 5805 5805 5804 5803 5803 5802 5802 5802 5801 5801 5800 5800 5799 5799 5798 5797 5796 5795 5794 5793 5791 5790 5788 5786 5785 5783 5781 5779 5777 5774 5771 5768 5764 5761 5757 5753 5749 5745 5741 5737 5733 5729 5725 5721
5815 5815 5814 5814 5814 5813 5813 5812 5812 5811 5810 5810 5809 5808 5808 5807 5806 5806 5806 5806 5805 5805 5805 5805 5806 5806 5805 5805 5806 5806 5806 5807 5807 5807 5807 5807 5807 5807 5807 5807 5806 5806 5805 5805 5804 5804 5803 5803 5802 5802 5801 5801 5800 5800 5799 5799 5798 5797 5796 5795 5794 5792 5791 5789 5788 5786 5784 5783 5781 5779 5776 5773 5770 5767 5763 5760 5756 5752 5748 5744 5741 5737 5733 5729 5724 5720
5817 5816 5816 5815 5815 5815 5814 5814 5814 5813 5812 5811 5810 5809 5809 5809 5808 5807 5807 5807 5806 5806 5806 5806 5806 5806 5806 5807 5807 5807 5807 5808 5808 5808 5808 5808 5808 5808 5808 5807 5807 5806 5806 5805 5805 5804 5804 5803 5803 5802 5802 5801 5800 5799 5799 5798 5798 5797 5796 5794 5793 5791 5790 5788 5787 5785 5784 5782 5780 5778 5775 5772 5769 5766 5763 5759 5756 5752 5748 5744 5740 5737 5732 5728 5724 5720
5818 5817 5817 5816 5816 5816 5816 5815 5815 5815 5814 5812 5811 5811 5810 5810 5810 5809 5808 5808 5808 5808 5808 5807 5807 5807 5807 5808 5808 5808 5808 5808 5809 5809 5809 5809 5809 5809 5808 5808 5808 5807 5807 5806 5805 5805 5804 5803 5803 5802 5802 5801 5800 5799 5799 5798 5797 5796 5795 5793 5792 5791 5789 5788 5786 5785 5783 5782 5780 5777 5775 5772 5769 5766 5763 5759 5755 5751 5747 5744 5740 5736 5732 5728 5723 5719
5820 5819 5818 5818 5818 5817 5817 5817 5816 5816 5815 5814 5813 5812 5811 5811 5811 5810 5810 5809 5809 5809 5809 5808 5808 5808 5809 5809 5809 5809 5809 5809 5810 5810 5810 5810 5810 5810 5810 5809 5809 5808 5807 5806 5806 5805 5804 5804 5803 5802 5801 5800 5799 5799 5798 5798 5797 5796 5794 5793 5791 5790 5789 5787 5786 5785 5783 5781 5779 5777 5774 5772 5769 5766 5762 5758 5754 5751 5747 5743 5740 5736 5732 5727 5723 5719
5821 5821 5820 5820 5819 5819 5818 5818 5817 5817 5817 5815 5814 5814 5813 5813 5812 5811 5811 5810 5810 5810 5810 5810 5809 5809 5809 5809 5810 5810 5810 5810 5810 5810 5811 5811 5811 5810 5810 5810 5809 5808 5807 5806 5805 5805 5804 5803 5803 5802 5801 5800 5799 5799 5798 5797 5796 5795 5793 5792 5791 5790 5788 5787 5785 5784 5783 5781 5778 5776 5774 5771 5768 5765 5762 5758 5754 5750 5747 5743 5740 5736 5732 5727 5723 5719
5822 5822 5822 5821 5821 5820 5819 5819 5818 5818 5818 5817 5815 5815 5814 5814 5813 5812 5812 5811 5811 5811 5811 5811 5810 5810 5810 5810 5810 5810 5811 5811 5811 5811 5811 5811 5811 5811 5810 5810 5809 5808 5807 5806 5805 5804 5803 5803 5802 5801 5800 5799 5799 5798 5797 5796 5795 5794 5793 5791 5790 5789 5788 5786 5785 5784 5782 5780 5778 5775 5773 5771 5768 5765 5761 5758 5754 5750 5746 5743 5739 5736 5731 5727 5723 5719
5823 5823 5823 5822 5822 5821 5820 5819 5819 5818 5818 5817 5816 5816 5815 5814 5814 5813 5813 5812 5812 5812 5812 5811 5811 5811 5811 5811 5811 5811 5811 5811 5811 5811 5811 5811 5811 5811 5810 5809 5808 5807 5806 5805 5805 5804 5803 5802 5801 5800 5799 5798 5798 5797 5796 5795 5794 5793 5792 5791 5790 5789 5787 5786 5785 5783 5782 5780 5777 5775 5773 5770 5767 5764 5761 5757 5753 5750 5746 5743 5739 5736 5732 5728 5724 5719
5824 5824 5823 5823 5822 5822 5821 5820 5819 5819 5819 5818 5817 5816 5816 5815 5815 5814 5814 5814 5813 5813 5812 5812 5812 5812 5812 5812 5812 5812 5812 5812 5811 5811 5810 5810 5810 5810 5810 5809 5808 5807 5806 5805 5804 5803 5802 5801 5800 5799 5799 5798 5797 5796 5795 5794 5793 5792 5791 5790 5789 5788 5787 5785 5784 5783 5781 5779 5777 5774 5772 5770 5767 5764 5761 5757 5753 5750 5746 5743 5740 5736 5732 5728 5724 5720
5825 5824 5824 5823 5823 5823 5823 5822 5820 5820 5819 5819 5818 5818 5817 5817 5816 5816 5815 5815 5815 5814 5814 5813 5813 5812 5812 5812 5812 5812 5812 5812 5811 5810 5810 5809 5809 5809 5809 5808 5807 5806 5805 5805 5804 5803 5802 5801 5800 5799 5797 5797 5796 5795 5794 5793 5792 5791 5790 5789 5788 5787 5786 5785 5784 5782 5781 5779 5777 5774 5772 5769 5767 5764 5760 5757 5753 5750 5746 5743 5740 5736 5732 5728 5724 5720
5825 5825 5825 5824 5824 5824 5823 5823 5822 5821 5820 5820 5819 5819 5818 5818 5817 5817 5816 5816 5816 5815 5815 5814 5814 5813 5813 5813 5813 5813 5812 5812 5811 5810 5809 5808 5808 5808 5808 5808 5807 5806 5805 5804 5803 5802 5801 5800 5799 5797 5796 5795 5794 5794 5793 5792 5791 5790 5789 5788 5787 5786 5785 5784 5783 5782 5780 5778 5776 5774 5771 5769 5766 5763 5760 5757 5754 5750 5747 5743 5740 5736 5733 5728 5724 5720
5826 5826 5826 5825 5825 5824 5824 5823 5822 5822 5821 5820 5820 5819 5819 5819 5818 5818 5818 5817 5817 5817 5817 5816 5815 5815 5815 5814 5814 5813 5813 5812 5811 5810 5809 5808 5808 5807 5807 5806 5806 5806 5805 5803 5803 5802 5800 5799 5797 5796 5795 5794 5793 5793 5792 5791 5790 5789 5788 5787 5786 5785 5784 5783 5782 5781 5779 5777 5775 5773 5771 5768 5766 5763 5760 5757 5754 5750 5747 5744 5740 5737 5733 5729 5725 5721
5826 5826 5826 5826 5825 5825 5824 5823 5823 5822 5822 5821 5821 5821 5821 5821 5820 5820 5819 5819 5818 5818 5818 5817 5817 5816 5816 5815 5815 5814 5813 5812 5811 5810 5809 5808 5808 5807 5806 5805 5805 5804 5804 5803 5802 5800 5799 5798 5796 5795 5794 5793 5792 5792 5791 5790 5789 5788 5787 5786 5785 5784 5783 5782 5781 5780 5779 5777 5775 5773 5770 5768 5766 5763 5760 5757 5754 5750 5747 5744 5741 5737 5733 5729 5726 5722
5827 5827 5826 5826 5826 5825 5825 5825 5824 5823 5823 5822 5822 5822 5821 5821 5821 5821 5820 5820 5819 5819 5819 5818 5818 5817 5817 5816 5815 5815 5814 5812 5811 5810 5809 5808 5807 5806 5806 5805 5804 5803 5802 5801 5800 5799 5798 5797 5795 5794 5793 5792 5791 5791 5790 5789 5788 5787 5786 5785 5784 5783 5782 5781 5780 5779 5778 5776 5774 5772 5770 5767 5765 5762 5759 5757 5754 5750 5747 5744 5741 5737 5734 5730 5726 5722
5827 5827 5827 5826 5826 5826 5826 5826 5825 5824 5824 5823 5823 5823 5822 5822 5821 5821 5821 5821 5820 5820 5820 5819 5819 5818 5818 5817 5816 5815 5814 5813 5812 5810 5810 5809 5807 5806 5805 5804 5803 5802 5801 5800 5799 5798 5797 5796 5794 5793 5792 5791 5790 5790 5789 5788 5787 5786 5785 5784 5783 5782 5781 5780 5779 5778 5777 5775 5774 5772 5769 5767 5765 5762 5759 5756 5754 5750 5747 5744 5741 5738 5734 5731 5727 5723
5827 5828 5828 5827 5827 5826 5826 5826 5826 5825 5824 5824 5824 5823 5823 5822 5822 5822 5822 5822 5821 5821 5821 5820 5819 5819 5818 5817 5817 5815 5814 5813 5812 5811 5810 5809 5807 5806 5805 5804 5803 5801 5800 5799 5798 5797 5796 5795 5794 5792 5791 5790 5790 5789 5788 5787 5786 5785 5784 5783 5782 5781 5780 5779 5778 5777 5776 5775 5773 5771 5769 5767 5764 5762 5759 5756 5753 5750 5747 5744 5741 5738 5735 5731 5727 5724
5827 5827 5827 5827 5827 5827 5826 5826 5826 5826 5825 5825 5824 5824 5823 5823 5822 5822 5822 5822 5822 5821 5821 5820 5820 5819 5818 5818 5817 5816 5815 5814 5813 5811 5810 5809 5807 5806 5805 5803 5802 5801 5800 5799 5798 5796 5795 5794 5793 5792 5790 5790 5789 5788 5787 5786 5785 5784 5783 5782 5781 5780 5779 5778 5777 5776 5775 5774 5773 5771 5769 5766 5764 5762 5759 5756 5753 5750 5747 5744 5741 5738 5735 5731 5728 5724
5826 5826 5827 5827 5827 5827 5827 5826 5826 5826 5825 5825 5824 5824 5824 5823 5823 5822 5822 5822 5822 5822 5821 5821 5820 5819 5818 5818 5817 5816 5815 5814 5813 5811 5810 5808 5807 5805 5804 5803 5801 5800 5799 5798 5797 5796 5795 5794 5792 5791 5790 5789 5789 5788 5787 5785 5784 5783 5782 5781 5780 5778 5778 5777 5776 5775 5774 5773 5772 5770 5768 5766 5764 5762 5759 5756 5753 5750 5748 5745 5741 5738 5735 5732 5728 5725
5825 5826 5826 5826 5826 5826 5826 5825 5825 5825 5825 5824 5824 5824 5824 5824 5823 5823 5822 5822 5822 5822 5821 5821 5820 5819 5819 5818 5817 5816 5815 5814 5812 5811 5810 5808 5806 5805 5804 5802 5801 5799 5798 5797 5796 5795 5794 5793 5792 5791 5790 5789 5788 5787 5786 5784 5783 5782 5781 5780 5778 5777 5776 5776 5775 5774 5773 5772 5771 5770 5768 5766 5764 5761 5759 5756 5753 5751 5748 5745 5742 5739 5735 5732 5729 5725
5825 5825 5825 5825 5825 5825 5825 5825 5825 5825 5824 5824 5824 5823 5823 5823 5822 5822 5822 5822 5822 5821 5821 5821 5820 5820 5819 5818 5816 5815 5814 5813 5812 5811 5809 5808 5806 5804 5803 5801 5800 5798 5797 5796 5795 5793 5792 5791 5791 5790 5789 5788 5787 5786 5785 5784 5783 5782 5780 5779 5777 5776 5776 5775 5774 5773 5772 5772 5771 5769 5767 5765 5763 5761 5759 5756 5753 5751 5748 5745 5742 5739 5736 5733 5729 5726
5824 5824 5824 5824 5824 5824 5824 5824 5824 5824 5823 5823 5823 5823 5823 5822 5821 5821 5821 5821 5821 5820 5820 5820 5820 5820 5818 5817 5816 5815 5813 5812 5811 5810 5809 5807 5805 5804 5802 5801 5799 5797 5796 5794 5794 5793 5792 5790 5790 5789 5788 5787 5787 5786 5785 5783 5782 5781 5780 5778 5777 5776 5775 5774 5773 5773 5772 5771 5770 5769 5767 5765 5763 5761 5758 5756 5753 5751 5748 5745 5742 5739 5736 5733 5730 5727
5824 5824 5824 5824 5824 5823 5823 5823 5823 5823 5822 5822 5822 5822 5822 5821 5820 5820 5820 5819 5819 5819 5818 5818 5819 5819 5818 5816 5815 5814 5813 5811 5810 5809 5808 5806 5804 5803 5801 5800 5798 5797 5795 5794 5793 5792 5791 5790 5789 5788 5787 5786 5786 5785 5784 5783 5782 5781 5779 5778 5777 5775 5774 5773 5773 5772 5771 5770 5769 5768 5766 5765 5763 5760 5758 5756 5753 5751 5749 5746 5743 5740 5736 5734 5731 5727
5824 5823 5823 5823 5823 5823 5822 5822 5822 5822 5821 5821 5821 5821 5820 5820 5819 5818 5818 5817 5817 5817 5817 5816 5816 5817 5817 5816 5814 5813 5811 5810 5809 5808 5807 5805 5804 5802 5801 5799 5797 5796 5795 5793 5792 5791 5791 5789 5788 5787 5786 5785 5785 5784 5783 5782 5781 5780 5779 5777 5776 5775 5774 5773 5772 5771 5770 5769 5768 5767 5766 5764 5762 5760 5758 5755 5753 5751 5749 5746 5743 5740 5737 5734 5731 5728
5823 5822 5822 5823 5823 5822 5822 5822 5821 5821 5821 5821 5820 5819 5819 5818 5818 5817 5816 5816 5815 5814 5814 5814 5814 5815 5815 5814 5813 5811 5810 5808 5807 5806 5805 5804 5803 5801 5800 5798 5797 5795 5794 5793 5791 5790 5789 5788 5787 5786 5785 5784 5784 5783 5782 5781 5780 5779 5778 5777 5775 5774 5773 5772 5771 5770 5770 5769 5768 5767 5765 5764 5762 5760 5758 5755 5753 5751 5749 5746 5744 5741 5738 5734 5731 5728
5821 5821 5821 5821 5822 5822 5822 5821 5820 5820 5820 5820 5819 5818 5818 5817 5816 5816 5815 5814 5813 5812 5812 5812 5811 5812 5813 5812 5811 5810 5809 5808 5806 5804 5803 5802 5801 5800 5799 5797 5796 5794 5793 5792 5791 5790 5788 5787 5786 5785 5784 5783 5783 5782 5782 5781 5779 5778 5777 5776 5774 5773 5772 5771 5770 5770 5769 5768 5767 5766 5765 5763 5761 5760 5757 5755 5753 5751 5749 5746 5744 5741 5738 5735 5732 5729
5819 5819 5819 5819 5820 5820 5820 5820 5819 5819 5818 5818 5818 5817 5816 5816 5815 5814 5814 5813 5812 5811 5811 5810 5809 5810 5810 5810 5809 5809 5808 5807 5806 5804 5803 5801 5801 5799 5798 5796 5795 5793 5792 5791 5789 5788 5787 5786 5784 5783 5783 5782 5782 5781 5781 5780 5778 5777 5776 5775 5774 5772 5771 5771 5770 5769 5769 5768 5767 5766 5764 5763 5761 5759 5757 5755 5753 5751 5749 5746 5744 5741 5739 5736 5733 5730
5816 5817 5817 5817 5818 5818 5818 5818 5817 5817 5816 5816 5816 5816 5815 5814 5813 5813 5812 5811 5811 5810 5809 5808 5808 5808 5808 5808 5807 5807 5806 5806 5805 5803 5802 5801 5800 5798 5796 5795 5794 5792 5791 5789 5788 5787 5785 5784 5783 5782 5782 5781 5781 5780 5780 5779 5777 5776 5775 5774 5773 5772 5771 5770 5770 5769 5768 5767 5766 5765 5764 5762 5761 5759 5757 5754 5752 5750 5749 5746 5744 5742 5739 5736 5733 5730
5814 5815 5814 5815 5815 5815 5815 5815 5815 5814 5814 5814 5814 5814 5813 5812 5812 5811 5810 5810 5809 5808 5807 5807 5807 5807 5807 5806 5806 5805 5805 5804 5803 5802 5801 5800 5799 5797 5795 5794 5792 5791 5789 5788 5787 5785 5784 5783 5782 5781 5781 5780 5780 5779 5779 5778 5776 5775 5774 5773 5772 5771 5770 5770 5769 5769 5768 5767 5766 5765 5763 5762 5760 5758 5756 5754 5752 5750 5748 5746 5744 5742 5739 5736 5733 5731
5812 5813 5812 5812 5812 5812 5813 5813 5812 5811 5811 5812 5812 5811 5810 5810 5810 5809 5809 5808 5807 5807 5806 5806 5806 5806 5805 5804 5804 5804 5803 5803 5802 5801 5800 5799 5798 5796 5794 5793 5791 5790 5788 5787 5785 5784 5783 5781 5781 5780 5780 5779 5778 5778 5777 5777 5775 5774 5773 5772 5771 5771 5770 5770 5769 5768 5767 5766 5765 5764 5763 5761 5760 5758 5756 5754 5752 5750 5748 5746 5744 5741 5739 5736 5734 5731
5809 5810 5810 5810 5809 5810 5810 5810 5810 5809 5809 5810 5810 5809 5808 5808 5807 5807 5807 5806 5805 5805 5804 5804 5804 5804 5803 5802 5802 5803 5802 5801 5800 5799 5798 5798 5797 5795 5793 5792 5790 5789 5787 5786 5784 5783 5781 5780 5780 5779 5778 5778 5777 5776 5776 5775 5774 5773 5772 5772 5771 5770 5770 5769 5768 5767 5766 5765 5764 5764 5762 5761 5759 5757 5755 5753 5751 5749 5748 5746 5744 5741 5739 5736 5734 5731
5806 5806 5807 5807 5807 5807 5808 5808 5808 5808 5808 5808 5807 5806 5805 5806 5805 5805 5805 5804 5803 5803 5803 5802 5802 5802 5801 5801 5801 5801 5800 5799 5798 5797 5797 5796 5795 5794 5792 5791 5790 5788 5786 5784 5783 5781 5780 5779 5778 5778 5777 5776 5776 5775 5774 5774 5773 5772 5771 5771 5770 5769 5769 5768 5768 5767 5766 5765 5764 5763 5762 5761 5759 5757 5755 5753 5751 5749 5747 5745 5743 5741 5739 5736 5734 5731
5803 5803 5804 5804 5804 5804 5805 5805 5805 5806 5807 5806 5805 5803 5803 5803 5803 5803 5803 5803 5802 5801 5801 5801 5800 5800 5799 5799 5799 5799 5798 5797 5797 5796 5795 5795 5794 5793 5791 5790 5789 5788 5786 5784 5782 5780 5779 5778 5777 5776 5776 5775 5775 5774 5773 5773 5772 5771 5771 5770 5769 5769 5768 5768 5767 5766 5765 5764 5763 5762 5761 5760 5758 5756 5754 5752 5750 5748 5747 5745 5743 5741 5738 5736 5734 5731
5800 5800 5801 5801 5801 5802 5802 5802 5803 5804 5805 5804 5803 5801 5800 5800 5801 5801 5801 5801 5800 5800 5799 5799 5798 5798 5797 5797 5797 5796 5796 5795 5794 5793 5793 5793 5792 5791 5790 5789 5788 5787 5785 5783 5781 5779 5778 5777 5777 5776 5775 5774 5774 5773 5772 5772 5771 5771 5770 5769 5768 5768 5768 5767 5766 5765 5764 5763 5762 5762 5761 5759 5758 5756 5754 5752 5750 5748 5746 5744 5742 5740 5738 5736 5734 5731
5796 5797 5798 5798 5798 5799 5799 5800 5801 5802 5803 5802 5800 5798 5798 5798 5799 5799 5799 5799 5798 5798 5797 5797 5796 5795 5795 5795 5794 5794 5794 5793 5792 5791 5791 5791 5791 5790 5789 5787 5786 5785 5784 5782 5780 5779 5778 5777 5776 5775 5774 5773 5772 5772 5772 5771 5770 5770 5769 5768 5768 5767 5767 5766 5766 5765 5764 5763 5762 5761 5760 5759 5757 5755 5753 5751 5749 5747 5745 5743 5741 5739 5737 5735 5733 5731
5793 5794 5795 5794 5795 5796 5796 5797 5798 5799 5801 5800 5796 5795 5796 5797 5796 5797 5797 5797 5796 5795 5795 5794 5793 5793 5793 5792 5792 5792 5791 5791 5790 5790 5789 5789 5788 5788 5787 5786 5784 5783 5782 5781 5779 5778 5777 5776 5775 5774 5773 5772 5772 5771 5771 5770 5769 5769 5768 5767 5767 5766 5766 5765 5765 5764 5763 5762 5761 5760 5759 5758 5757 5755 5753 5751 5749 5747 5745 5742 5740 5738 5736 5734 5732 5730
5789 5791 5791 5791 5791 5793 5794 5794 5795 5797 5798 5797 5794 5794 5794 5794 5793 5794 5795 5795 5794 5792 5792 5792 5791 5791 5790 5790 5789 5789 5789 5788 5788 5787 5787 5786 5785 5785 5785 5784 5783 5782 5780 5779 5778 5777 5775 5774 5773 5772 5772 5771 5771 5770 5770 5769 5768 5768 5767 5766 5766 5765 5765 5764 5764 5763 5762 5761 5760 5759 5758 5757 5756 5754 5752 5750 5748 5746 5744 5741 5739 5737 5735 5733 5731 5729
5786 5787 5787 5788 5789 5790 5790 5791 5792 5793 5794 5793 5792 5792 5792 5791 5791 5791 5791 5791 5791 5790 5790 5790 5789 5789 5788 5787 5787 5787 5786 5786 5786 5785 5784 5784 5783 5782 5782 5782 5781 5780 5779 5778 5776 5775 5774 5773 5772 5771 5770 5770 5769 5769 5768 5768 5767 5767 5766 5765 5765 5764 5764 5763 5763 5762 5761 5760 5759 5758 5757 5757 5755 5754 5752 5750 5748 5746 5744 5741 5739 5736 5734 5732 5730 5728
5783 5783 5783 5785 5786 5787 5787 5787 5788 5790 5790 5790 5790 5790 5790 5790 5789 5788 5788 5788 5789 5789 5789 5788 5787 5787 5786 5786 5785 5785 5784 5783 5783 5782 5782 5781 5781 5780 5780 5779 5779 5778 5777 5776 5775 5774 5772 5771 5770 5769 5769 5768 5768 5768 5767 5766 5766 5765 5765 5764 5764 5763 5763 5762 5762 5761 5760 5759 5758 5757 5757 5756 5755 5753 5751 5749 5748 5746 5743 5741 5738 5736 5734 5732 5730 5728
5779 5779 5780 5781 5782 5783 5784 5784 5785 5786 5787 5787 5787 5787 5788 5788 5787 5786 5786 5786 5787 5787 5787 5786 5785 5785 5784 5784 5783 5783 5782 5780 5780 5779 5779 5779 5778 5778 5777 5776 5776 5775 5775 5774 5773 5772 5771 5770 5769 5768 5767 5767 5767 5766 5766 5765 5765 5764 5764 5763 5762 5762 5762 5761 5760 5760 5759 5758 5757 5756 5756 5755 5754 5753 5751 5749 5747 5745 5743 5740 5738 5736 5733 5731 5729 5727
5776 5776 5777 5778 5779 5780 5780 5781 5781 5782 5783 5784 5784 5784 5785 5785 5785 5784 5784 5784 5784 5784 5784 5784 5783 5783 5782 5782 5781 5781 5780 5779 5778 5777 5777 5777 5776 5775 5774 5773 5773 5773 5772 5772 5771 5770 5770 5768 5767 5766 5766 5765 5765 5765 5764 5764 5763 5763 5762 5762 5761 5761 5760 5760 5759 5758 5758 5757 5756 5755 5754 5754 5753 5752 5750 5748 5747 5745 5742 5740 5738 5735 5733 5731 5729 5727
5772 5773 5774 5774 5775 5776 5777 5777 5777 5778 5779 5780 5781 5781 5782 5782 5782 5781 5781 5781 5781 5781 5781 5780 5780 5780 5780 5779 5779 5778 5778 5777 5776 5775 5775 5774 5774 5773 5772 5771 5770 5770 5769 5769 5769 5768 5768 5767 5766 5765 5764 5764 5763 5763 5762 5762 5761 5761 5761 5760 5760 5760 5759 5758 5758 5757 5756 5755 5755 5754 5753 5753 5752 5751 5749 5748 5746 5744 5742 5740 5737 5735 5733 5731 5729 5726
5768 5769 5770 5770 5771 5772 5773 5773 5773 5774 5775 5776 5777 5777 5778 5779 5779 5778 5778 5778 5778 5778 5778 5777 5776 5776 5776 5776 5776 5775 5775 5774 5773 5773 5773 5772 5772 5770 5769 5768 5767 5766 5766 5766 5766 5766 5766 5765 5764 5763 5763 5762 5762 5761 5760 5760 5759 5759 5759 5759 5758 5758 5757 5757 5756 5755 5755 5754 5753 5753 5752 5751 5750 5749 5748 5747 5745 5744 5741 5739 5737 5735 5732 5730 5728 5726
5764 5765 5766 5766 5767 5768 5769 5769 5770 5770 5771 5771 5772 5773 5774 5775 5775 5775 5775 5775 5775 5775 5775 5774 5773 5773 5772 5772 5773 5772 5772 5771 5771 5770 5770 5770 5769 5768 5767 5765 5764 5763 5763 5763 5763 5763 5763 5763 5762 5761 5761 5760 5760 5759 5758 5758 5757 5757 5757 5757 5757 5756 5756 5755 5754 5754 5753 5752 5752 5751 5750 5749 5749 5748 5746 5745 5744 5743 5741 5739 5736 5734 5732 5730 5727 5725
5759 5760 5762 5763 5763 5764 5764 5765 5765 5766 5767 5767 5768 5769 5769 5770 5771 5771 5771 5771 5771 5771 5771 5771 5770 5770 5769 5769 5769 5770 5769 5768 5768 5767 5767 5767 5766 5765 5764 5763 5762 5761 5760 5760 5759 5760 5760 5760 5759 5759 5758 5757 5757 5757 5756 5755 5755 5755 5755 5755 5754 5754 5754 5753 5753 5752 5751 5750 5750 5749 5749 5748 5747 5746 5745 5744 5743 5742 5740 5738 5736 5733 5731 5729 5726 5724
5754 5756 5757 5758 5759 5759 5759 5760 5761 5761 5762 5763 5764 5764 5764 5765 5766 5766 5766 5767 5767 5768 5768 5767 5767 5766 5766 5765 5765 5766 5766 5765 5764 5764 5764 5764 5763 5763 5762 5760 5759 5758 5757 5756 5756 5756 5757 5757 5756 5756 5755 5755 5754 5754 5753 5753 5752 5752 5752 5752 5752 5752 5752 5751 5750 5750 5749 5748 5748 5747 5747 5746 5745 5744 5743 5742 5741 5740 5739 5737 5735 5732 5730 5728 5725 5723
5749 5751 5752 5753 5753 5754 5754 5755 5755 5756 5757 5757 5758 5759 5760 5760 5761 5761 5761 5762 5762 5763 5763 5763 5763 5763 5762 5762 5762 5762 5763 5762 5761 5761 5761 5761 5760 5760 5759 5758 5757 5755 5754 5753 5753 5753 5753 5753 5753 5753 5752 5752 5751 5751 5751 5750 5750 5749 5749 5750 5750 5749 5749 5749 5748 5747 5747 5746 5746 5745 5745 5744 5743 5743 5742 5740 5739 5738 5737 5735 5733 5731 5729 5727 5724 5722
5745 5746 5746 5746 5747 5748 5749 5750 5750 5751 5752 5752 5753 5754 5755 5756 5756 5757 5757 5757 5757 5758 5758 5759 5759 5759 5758 5758 5758 5759 5759 5759 5758 5757 5758 5757 5757 5756 5756 5755 5754 5753 5752 5751 5750 5750 5749 5750 5750 5749 5749 5748 5748 5748 5748 5747 5747 5747 5747 5747 5747 5747 5747 5746 5746 5745 5744 5744 5744 5743 5743 5742 5741 5741 5740 5739 5738 5736 5735 5733 5732 5730 5728 5726 5723 5720
5739 5740 5740 5740 5741 5743 5744 5745 5745 5746 5747 5748 5748 5748 5749 5750 5751 5752 5752 5752 5752 5752 5753 5753 5754 5754 5754 5754 5754 5754 5755 5755 5755 5754 5753 5753 5753 5752 5752 5751 5751 5750 5749 5748 5747 5746 5745 5745 5745 5745 5745 5745 5744 5744 5744 5744 5744 5744 5744 5744 5744 5744 5744 5743 5743 5742 5742 5741 5741 5741 5740 5740 5739 5739 5738 5737 5736 5735 5733 5732 5730 5728 5726 5724 5722 5719